Home > Weather > Colonia > Past weeks

Flag for Micronesia Weather for the Past 2 Weeks in Colonia, Yap, Micronesia

Now
88 °F

Scattered clouds.


Feels Like: 98 °F
Forecast: 77 / 88 °F
Wind: 10 mph from East

Location: Yap Island

Current Time: Feb 6, 2016 at 11:32:21 AM

Latest Report: Feb 6, 2016 at 9:55 AM


Visibility: 12 mi

Pressure: 29.86 "Hg

Humidity: 64%

Dew point: 74 °F

Location of ColoniaLocation

Historic Weather in Colonia — Graph

°F

Colonia Temperature Yesterday

Maximum temperature yesterday: 89 °F (at 12:50 PM)
Minimum temperature yesterday: 77 °F (at 5:50 AM)
Average temperature yesterday: 82 °F

High & Low Weather Summary for the Past Weeks

 TemperatureHumidityPressure
High92 °F (Feb 2, 1:52 PM)94% (Jan 29, 12:50 AM)30.00 "Hg (Jan 29, 12:50 AM)
Low75 °F (Jan 25, 3:58 AM)54% (Jan 24, 12:50 PM)29.75 "Hg (Feb 5, 4:50 PM)
Average82 °F76%29.88 "Hg
* Reported Jan 22 9:53 AM — Feb 6 9:55 AM, Colonia, Weather by CustomWeather, © 2016

Note: Actual official high and low records may vary slightly from our data, if they occured in-between our weather recording intervals... More about our weather records

Advertising

Colonia Weather History for the Previous 24 Hours

 ConditionsComfort  
Time TempWeatherWind HumidityBarometerVisibility
9:55 AM
Sat, Feb 6
88 °FScattered clouds.10 mph64%29.86 "Hg12 mi
8:51 AM83 °FScattered clouds.9 mph75%29.85 "Hg12 mi
7:53 AM80 °FPartly cloudy.2 mph83%29.83 "Hg12 mi
6:50 AM77 °FPartly cloudy.3 mph88%29.81 "Hg12 mi
5:52 AM78 °FPartly cloudy.No wind84%29.80 "Hg12 mi
4:53 AM79 °FPartly cloudy.3 mph81%29.76 "Hg12 mi
3:52 AM78 °FPartly cloudy.7 mph82%29.76 "Hg12 mi
2:50 AM79 °FPassing clouds.5 mph80%29.76 "Hg12 mi
1:51 AM79 °FPassing clouds.7 mph78%29.78 "Hg12 mi
12:55 AM79 °FPassing clouds.9 mph77%29.80 "Hg12 mi
11:55 PM
Fri, Feb 5
79 °FPassing clouds.12 mph77%29.80 "Hg12 mi
10:51 PM79 °FPassing clouds.8 mph75%29.81 "Hg12 mi
9:54 PM79 °FPassing clouds.9 mph77%29.82 "Hg12 mi
8:51 PM79 °FPassing clouds.10 mph77%29.80 "Hg12 mi
7:50 PM80 °FScattered clouds.8 mph76%29.80 "Hg12 mi
6:52 PM80 °FBroken clouds.12 mph75%29.79 "Hg12 mi
5:50 PM84 °FBroken clouds.12 mph67%29.78 "Hg12 mi
4:50 PM87 °FBroken clouds.12 mph62%29.75 "Hg12 mi
3:51 PM88 °FScattered clouds.12 mph59%29.76 "Hg12 mi
2:50 PM87 °FScattered clouds.12 mph59%29.78 "Hg12 mi
1:50 PM89 °FScattered clouds.12 mph55%29.83 "Hg12 mi
12:50 PM89 °FScattered clouds.12 mph55%29.85 "Hg12 mi
11:50 AM89 °FScattered clouds.12 mph55%29.88 "Hg12 mi
Weather by CustomWeather, © 2016

See weather overviewHow to use our weather pages